Regional Weather Roundup
Issued by NWS Sterling, VA

Home | Current Version | Previous Version | Text Only | Print | Product List | Glossary Off
Versions: 1 2 3 4 5 6 7 8 9 10 11 12 13 14 15 16 17 18 19 20 21 22 23 24 25 26 27 28 29 30 31 32 33 34 35 36 37 38 39 40 41 42 43 44 45 46 47 48 49 50

610
ASUS41 KLWX 230410
RWRLWX

REGIONAL WEATHER ROUNDUP
NATIONAL WEATHER SERVICE BALTIMORE MD/WASHINGTON DC
1200 AM EDT MON MAY 23 2016

Note: "FAIR" indicates few or no clouds below 12,000 feet
with no significant weather and/or obstructions to visibility.
 TC=TEMPERATURE CELSIUS

 * =Non NWS site. Station does not report precipitation (e.g. rain,
    snow, etc.), thunder, or fog.

DCZ001-MDZ009-015-VAZ040>042-051-053>054-230500-
WASHINGTON METRO

CITY           SKY/WX    TMP DP  RH WIND       PRES   REMARKS
WASHINGTON NAT CLOUDY    57  55  93 N6        29.91S
DULLES         CLOUDY    56  55  97 N3        29.92S
ANDREWS AFB    CLOUDY    55  54  94 N6        29.90S
FT BELVOIR     LGT RAIN  55  54  94 VRB1      29.91R
QUANTICO       LGT RAIN  57  55  93 NE10      29.91S FOG
COLLEGE PARK*  CLOUDY    54  54 100 CALM      29.91S
LEESBURG*      LGT RAIN  55  55 100 N3        29.93S
MANASSAS*      CLOUDY    55  55 100 N7        29.92R
GAITHERSBURG*  CLOUDY    55  52  88 CALM      29.96R

$$

MDZ006>007-011-014-230500-
BALTIMORE METRO

CITY           SKY/WX    TMP DP  RH WIND       PRES   REMARKS
BWI AIRPORT    LGT RAIN  57  55  93 CALM      29.91R FOG
MD SCIENCE CTR   N/A     58  54  86 MISG      29.90F
MARTIN STATE   CLOUDY    55  55 100 CALM      29.93R FOG
ANNAPOLIS      CLOUDY    58  55  90 N5        29.90S
FORT MEADE*    CLOUDY    54  54 100 CALM      29.94R

$$

MDZ012-015-019>023-230500-
MARYLAND EASTERN SHORE

CITY           SKY/WX    TMP DP  RH WIND       PRES   REMARKS
OCEAN CITY     CLOUDY    56  54  93 NE9       29.86F
SALISBURY      CLOUDY    56  54  93 NE12      29.86F
BAY BRIDGE AP* LGT RAIN  57  55  94 N5        29.91R
CAMBRIDGE*     CLOUDY    55  54  94 NE5       29.88R
EASTON*        DRIZZLE   58  58 100 NE5       29.93S

$$

MDZ017>025-230500-
SOUTHERN MARYLAND

CITY           SKY/WX    TMP DP  RH WIND       PRES   REMARKS
PATUXENT RIVER CLOUDY    57  55  93 NE10      29.87F
ST INIGOES     LGT RAIN  57  56  96 NE8       29.86F FOG
LEONARDTOWN*   CLOUDY    55  54  94 NE3       29.89S

$$

MDZ003>005-230500-
NORTH CENTRAL MARYLAND

CITY           SKY/WX    TMP DP  RH WIND       PRES   REMARKS
FREDERICK*     CLOUDY    55  55 100 CALM      29.95S
HAGERSTOWN APT CLOUDY    55  53  93 NW6       29.94R
WESTMINSTER*   CLOUDY    55  30  38 CALM      29.92R

$$

MDZ501>502-230500-
WESTERN MARYLAND

CITY           SKY/WX    TMP DP  RH WIND       PRES   REMARKS
OAKLAND*       CLOUDY    46  46 100 CALM      29.99S FOG
CUMBERLAND*    CLOUDY    54  54 100 CALM      30.00S

$$

VAZ025>031-230500-
SHENANDOAH VALLEY

CITY           SKY/WX    TMP DP  RH WIND       PRES   REMARKS
WINCHESTER*    CLOUDY    54  52  94 CALM      29.94S
FRONT ROYAL*   CLOUDY    52  52 100 CALM      29.93S
LURAY*         RAIN      52  52 100 CALM      29.93F
NEW MARKET*    CLOUDY    51  51 100 CALM      29.95S
STAUNTON*      RAIN      53  53 100 CALM      29.96S
WAYNESBORO*    CLOUDY    49  48  96 CALM      29.95S

$$

WVZ021-048>050-054>055-230500-
EASTERN WEST VIRGINIA PANHANDLE

CITY           SKY/WX    TMP DP  RH WIND       PRES   REMARKS
MARTINSBURG    LGT RAIN  55  53  93 N5        29.93S
PETERSBURG*    CLOUDY    54  53  98 CALM      29.98R

$$

VAZ036>039-050-230500-
CENTRAL FOOTHILLS

CITY           SKY/WX    TMP DP  RH WIND       PRES   REMARKS
CHARLOTTESVILL CLOUDY    54  51  90 CALM      29.91F
CULPEPER*      DRIZZLE   55  55  97 N7        29.92S
ORANGE*        RAIN      54  54 100 CALM      29.93S
GORDONSVILLE*  CLOUDY    54  52  95 NW3       29.91S
WARRENTON*     LGT RAIN  56  51  83 N6        29.90S

$$

VAZ055>057-230500-
NORTH AND CENTRAL PIEDMONT

CITY           SKY/WX    TMP DP  RH WIND       PRES   REMARKS
FREDERICKSBRG* LGT RAIN  55  55 100 CALM      29.89S
STAFFORD*      RAIN      55  53  95 N3        29.94S

$$

NCZ024-NYZ072-PAZ021-071-VAZ022-071-230500-
OTHER REGIONAL OBSERVATIONS

CITY           SKY/WX    TMP DP  RH WIND       PRES   REMARKS
NEW YORK CITY  PTCLDY    59  51  75 CALM      29.92S
PHILADELPHIA   PTCLDY    60  54  80 NW7       29.91S
PITTSBURGH     LGT RAIN  55  51  86 E6        30.02R
ROANOKE        FAIR      55  48  77 E5        29.97R
RICHMOND       DRIZZLE   53  52  96 NW6       29.88F FOG
RALEIGH        CLOUDY    55  53  93 CALM      29.92R

$$

ANZ530>537-230500-
MARINE OBSERVATIONS

STATION/POSITION TIME  TEMP    WIND        PRES
                       AIR SEA DIR/SP/G
                 (UTC) (F)     (DEG/KT/KT) (MB)
THOMAS PT LIGHT  0400   58 60   30/ 11/ 12 1013.8R
BALT KEY BRIDGE  0300                      1012.6R
COVE POINT       0300                      1012.3R
LEWISETTA        0306   57 63              1011.0F
PINEY POINT      0300           30/  5/  6   N/A

$$





USA.gov is the U.S. government's official web portal to all federal, state and local government web resources and services.